Time,TemperatureF,DewpointF,PressureIn,WindDirection,WindDirectionDegrees,WindSpeedMPH,WindSpeedGustMPH,Humidity,HourlyPrecipIn,Conditions,Clouds,dailyrainin,SoftwareType,DateUTC
2013-08-26 22:09:00,76.1,70.2,29.96,NW,315,0.0,0.0,82,0.00,,,0.00,WUHU216HW,2013-08-27 03:09:00,
2013-08-26 22:10:00,76.1,70.2,29.96,NW,315,0.0,0.0,82,0.00,,,0.00,WUHU216HW,2013-08-27 03:10:00,
2013-08-26 22:15:00,75.9,70.0,29.95,NNW,338,0.0,0.0,82,0.00,,,0.00,WUHU216HW,2013-08-27 03:15:00,
2013-08-26 22:20:00,75.7,69.5,29.96,NW,315,0.0,0.0,81,0.00,,,0.00,WUHU216HW,2013-08-27 03:20:00,
2013-08-26 22:25:00,75.5,69.3,29.96,NW,315,0.0,0.0,81,0.00,,,0.00,WUHU216HW,2013-08-27 03:25:00,
2013-08-26 22:30:00,75.3,69.2,29.96,NNW,338,0.0,0.0,81,0.00,,,0.00,WUHU216HW,2013-08-27 03:30:00,
2013-08-26 22:35:00,75.0,68.8,29.95,NNW,338,0.0,0.0,81,0.00,,,0.00,WUHU216HW,2013-08-27 03:35:00,
2013-08-26 22:40:00,74.8,68.3,29.95,NNW,338,0.0,0.0,80,0.00,,,0.00,WUHU216HW,2013-08-27 03:40:00,
2013-08-26 22:45:00,74.4,68.3,29.95,NNW,338,0.0,0.0,81,0.00,,,0.00,WUHU216HW,2013-08-27 03:45:00,
2013-08-26 22:50:00,74.3,68.1,29.94,NNW,338,0.0,0.0,81,0.00,,,0.00,WUHU216HW,2013-08-27 03:50:00,
2013-08-26 22:55:00,74.1,67.6,29.95,NNW,338,0.0,0.0,80,0.00,,,0.00,WUHU216HW,2013-08-27 03:55:00,
2013-08-26 23:00:00,73.9,67.4,29.95,NNW,338,0.0,0.0,80,0.00,,,0.00,WUHU216HW,2013-08-27 04:00:00,
2013-08-26 23:01:00,73.9,67.4,29.95,NNW,338,0.0,0.0,80,0.00,,,0.00,WUHU216HW,2013-08-27 04:01:00,
2013-08-26 23:06:00,73.5,67.1,29.95,NNW,338,0.0,0.0,80,0.00,,,0.00,WUHU216HW,2013-08-27 04:06:00,
2013-08-26 23:11:00,73.4,66.9,29.95,NNW,338,0.0,0.0,80,0.00,,,0.00,WUHU216HW,2013-08-27 04:11:00,
2013-08-26 23:16:00,73.2,66.7,29.95,NNW,338,0.0,0.0,80,0.00,,,0.00,WUHU216HW,2013-08-27 04:16:00,
2013-08-26 23:21:00,73.2,67.0,29.96,North,0,0.0,0.0,81,0.00,,,0.00,WUHU216HW,2013-08-27 04:21:00,
2013-08-26 23:26:00,73.0,67.2,29.96,NNE,23,0.0,0.0,82,0.00,,,0.00,WUHU216HW,2013-08-27 04:26:00,
2013-08-26 23:31:00,73.0,67.2,29.96,NNE,23,0.0,0.0,82,0.00,,,0.00,WUHU216HW,2013-08-27 04:31:00,
2013-08-26 23:36:00,72.8,67.4,29.96,North,0,0.0,0.0,83,0.00,,,0.00,WUHU216HW,2013-08-27 04:36:00,
2013-08-26 23:41:00,72.8,67.4,29.96,NNE,23,0.0,0.0,83,0.00,,,0.00,WUHU216HW,2013-08-27 04:41:00,
2013-08-26 23:46:00,72.6,67.2,29.96,North,0,0.0,0.0,83,0.00,,,0.00,WUHU216HW,2013-08-27 04:46:00,
2013-08-26 23:51:00,72.5,66.7,29.96,North,0,0.0,0.0,82,0.00,,,0.00,WUHU216HW,2013-08-27 04:51:00,
2013-08-26 23:56:00,72.3,66.8,29.95,NNE,23,0.0,0.0,83,0.00,,,0.00,WUHU216HW,2013-08-27 04:56:00,